Simultaneous Nadir Overpasses (SNOs) Predictions

Prediction of SNOs between AQUA and NPP Satellite Orbit:

Table of predicted SNOs for the next 14.0 days since TLE Epoch: 10/24/2014
Index Date (AQUA) Time (AQUA) Lat,Lon (AQUA) SZA (AQUA ) Date (NPP) Time (NPP) Lat,Lon (NPP) SZA (NPP ) Distance(km) Time Diff (sec)
1 10/26/2014 00:44:41 46.01, 21.28 134.50 10/26/2014 00:44:10 45.95, 21.42 134.52 12.11 31
2 10/26/2014 01:32:12 -53.01,-168.16 50.97 10/26/2014 01:32:55 -53.01,-168.16 51.05 0.13 43
3 10/28/2014 17:01:11 46.04, 137.16 135.17 10/28/2014 17:00:57 46.02, 137.23 135.17 5.67 14
4 10/28/2014 17:47:48 -56.21, -50.66 52.80 10/28/2014 17:48:47 -56.21, -50.65 52.92 0.96 59
5 10/31/2014 08:28:18 -46.03, 85.38 44.15 10/31/2014 08:27:05 -45.99, 85.69 44.12 23.65 73
6 10/31/2014 09:17:24 47.06,-106.57 135.11 10/31/2014 09:17:28 47.06,-106.56 135.09 0.99 4
7 10/31/2014 10:01:45 -65.05, 71.44 59.54 10/31/2014 10:02:59 -64.99, 71.70 59.70 13.95 74
8 11/03/2014 00:44:47 -46.03,-158.73 43.47 11/03/2014 00:43:54 -45.98,-158.53 43.44 16.90 53
9 11/03/2014 01:32:49 50.85, 10.86 132.94 11/03/2014 01:33:11 50.85, 10.87 132.89 0.82 22
10 11/03/2014 02:05:12 -65.27, -25.56 99.53 11/03/2014 02:06:25 -64.99, -27.29 99.89 86.72 73
11 11/05/2014 17:01:15 -46.01, -42.86 42.80 11/05/2014 17:00:43 -45.96, -42.74 42.76 10.33 32




NCC Satellite Simultaneous Nadir Overpasses (SNOs) Prediction Service
